AAL1267 KDFW-KRSW

Flight info

Callsign AAL1267
Flight time 1h 57m
Altitude 33000
Route MRSSH3 ZALEA HRV Q105 BLVNS KOLBR TYNEE4
Aircraft A321/M-SDE3FGHIRWY/LB1

Departure

Time 2026-05-07 02:06
Airport Dallas Fort Worth International Airport (KDFW)

Arrival

Time 2026-05-07 04:03
Airport Southwest Florida International Airport (KRSW)
Time Latitude Longitude Altitude Speed Heading
2026-05-07 01:36 32.90172 -97.03692 587 ft 0 kts 349°
2026-05-07 01:50 32.90152 -97.03688 587 ft 4 kts 349°
2026-05-07 01:51 32.90132 -97.03684 587 ft 4 kts 17°
2026-05-07 01:51 32.90121 -97.03699 587 ft 3 kts 77°
2026-05-07 01:51 32.90116 -97.03726 587 ft 1 kts 77°
2026-05-07 01:54 32.90116 -97.03724 587 ft 1 kts 77°
2026-05-07 01:54 32.90116 -97.03708 587 ft 3 kts 96°
2026-05-07 01:55 32.90104 -97.03679 587 ft 4 kts 119°
2026-05-07 01:55 32.90094 -97.03645 587 ft 5 kts 103°
2026-05-07 01:55 32.90091 -97.03602 587 ft 6 kts 90°
2026-05-07 01:55 32.90091 -97.03553 587 ft 6 kts 90°
2026-05-07 01:56 32.90090 -97.03498 587 ft 7 kts 90°
2026-05-07 01:56 32.90090 -97.03436 586 ft 8 kts 90°
2026-05-07 01:56 32.90090 -97.03373 586 ft 6 kts 90°
2026-05-07 01:56 32.90083 -97.03328 586 ft 6 kts 126°
2026-05-07 01:57 32.90037 -97.03315 585 ft 8 kts 179°
2026-05-07 01:57 32.89979 -97.03315 585 ft 9 kts 180°
2026-05-07 01:57 32.89917 -97.03315 586 ft 9 kts 180°
2026-05-07 01:57 32.89852 -97.03315 586 ft 10 kts 180°
2026-05-07 01:58 32.89784 -97.03315 586 ft 10 kts 180°
2026-05-07 01:58 32.89713 -97.03316 586 ft 10 kts 180°
2026-05-07 01:58 32.89641 -97.03316 586 ft 11 kts 180°
2026-05-07 01:58 32.89566 -97.03317 586 ft 11 kts 180°
2026-05-07 01:59 32.89486 -97.03317 585 ft 12 kts 180°
2026-05-07 01:59 32.89402 -97.03318 585 ft 13 kts 180°
2026-05-07 01:59 32.89308 -97.03318 584 ft 14 kts 180°
2026-05-07 01:59 32.89208 -97.03319 583 ft 15 kts 180°
2026-05-07 02:00 32.89103 -97.03319 583 ft 15 kts 180°
2026-05-07 02:00 32.88995 -97.03320 592 ft 16 kts 181°
2026-05-07 02:00 32.88883 -97.03321 582 ft 16 kts 180°
2026-05-07 02:00 32.88770 -97.03321 582 ft 16 kts 180°
2026-05-07 02:01 32.88675 -97.03322 582 ft 12 kts 180°
2026-05-07 02:01 32.88598 -97.03322 584 ft 12 kts 180°
2026-05-07 02:01 32.88521 -97.03316 581 ft 11 kts 163°
2026-05-07 02:01 32.88455 -97.03289 578 ft 9 kts 174°
2026-05-07 02:02 32.88394 -97.03288 580 ft 8 kts 180°
2026-05-07 02:02 32.88333 -97.03288 582 ft 10 kts 180°
2026-05-07 02:02 32.88254 -97.03289 579 ft 12 kts 180°
2026-05-07 02:02 32.88163 -97.03290 577 ft 14 kts 180°
2026-05-07 02:03 32.88070 -97.03290 579 ft 12 kts 180°
2026-05-07 02:03 32.88008 -97.03289 578 ft 8 kts 172°
2026-05-07 02:03 32.87978 -97.03241 582 ft 8 kts 98°
2026-05-07 02:03 32.87977 -97.03174 581 ft 9 kts 90°
2026-05-07 02:04 32.87977 -97.03089 574 ft 12 kts 90°
2026-05-07 02:04 32.87978 -97.03021 576 ft 5 kts 78°
2026-05-07 02:04 32.88005 -97.03008 574 ft 3 kts
2026-05-07 02:04 32.88019 -97.03008 576 ft 2 kts
2026-05-07 02:05 32.88189 -97.03006 579 ft 58 kts
2026-05-07 02:05 32.88815 -97.03003 570 ft 120 kts
2026-05-07 02:05 32.89828 -97.02997 578 ft 169 kts
2026-05-07 02:05 32.91038 -97.02997 1155 ft 171 kts 360°
2026-05-07 02:06 32.92235 -97.02953 1798 ft 173 kts 13°
2026-05-07 02:06 32.93410 -97.02593 2457 ft 177 kts 16°
2026-05-07 02:06 32.94645 -97.02189 2700 ft 194 kts 15°
2026-05-07 02:06 32.96022 -97.01736 2817 ft 216 kts 16°
2026-05-07 02:07 32.97537 -97.01235 3151 ft 229 kts 15°
2026-05-07 02:07 33.00641 -97.00159 4250 ft 244 kts 25°
2026-05-07 02:07 33.01896 -96.98755 4620 ft 259 kts 61°
2026-05-07 02:08 33.02299 -96.96630 5077 ft 271 kts 87°
2026-05-07 02:08 33.02151 -96.94357 5598 ft 279 kts 97°
2026-05-07 02:08 33.01806 -96.92054 6130 ft 285 kts 100°
2026-05-07 02:08 33.01439 -96.89704 6649 ft 291 kts 99°
2026-05-07 02:09 33.01007 -96.87291 7136 ft 297 kts 109°
2026-05-07 02:09 33.00169 -96.85031 7657 ft 300 kts 122°
2026-05-07 02:09 32.98994 -96.82967 8202 ft 302 kts 129°
2026-05-07 02:09 32.97774 -96.80910 8731 ft 306 kts 129°
2026-05-07 02:10 32.96547 -96.78819 9258 ft 310 kts 129°
2026-05-07 02:10 32.95311 -96.76705 9818 ft 312 kts 129°
2026-05-07 02:10 32.94061 -96.74567 10230 ft 320 kts 129°
2026-05-07 02:10 32.92747 -96.72334 10346 ft 338 kts 130°
2026-05-07 02:11 32.91360 -96.69989 10469 ft 355 kts 129°
2026-05-07 02:11 32.89907 -96.67530 10599 ft 371 kts 129°
2026-05-07 02:11 32.88392 -96.64971 10736 ft 386 kts 129°
2026-05-07 02:11 32.86819 -96.62309 10852 ft 400 kts 129°
2026-05-07 02:12 32.85218 -96.59596 11365 ft 399 kts 129°
2026-05-07 02:12 32.83657 -96.56937 12345 ft 385 kts 130°
2026-05-07 02:12 32.82144 -96.54355 13240 ft 377 kts 130°
2026-05-07 02:12 32.80644 -96.51807 13822 ft 377 kts 131°
2026-05-07 02:13 32.79129 -96.49247 14181 ft 383 kts 131°
2026-05-07 02:13 32.77563 -96.46620 14298 ft 396 kts 131°
2026-05-07 02:13 32.75944 -96.43913 14411 ft 408 kts 131°
2026-05-07 02:13 32.74275 -96.41121 14530 ft 419 kts 131°
2026-05-07 02:14 32.72570 -96.38257 14613 ft 431 kts 130°
2026-05-07 02:14 32.71040 -96.35128 14741 ft 447 kts 120°
2026-05-07 02:14 32.69942 -96.31619 14906 ft 460 kts 109°
2026-05-07 02:14 32.69343 -96.27853 15187 ft 468 kts 98°
2026-05-07 02:15 32.69091 -96.23983 15498 ft 472 kts 97°
2026-05-07 02:15 32.68838 -96.20098 15821 ft 474 kts 98°
2026-05-07 02:15 32.68664 -96.17507 16026 ft 476 kts 98°
2026-05-07 02:15 32.68391 -96.13530 16344 ft 479 kts 98°
2026-05-07 02:16 32.68117 -96.09581 16659 ft 481 kts 98°
2026-05-07 02:16 32.67843 -96.05613 16984 ft 483 kts 99°
2026-05-07 02:16 32.67569 -96.01626 17301 ft 486 kts 99°
2026-05-07 02:16 32.67293 -95.97618 17607 ft 489 kts 99°
2026-05-07 02:17 32.67015 -95.93586 17919 ft 491 kts 99°
2026-05-07 02:17 32.66737 -95.89533 18240 ft 494 kts 99°
2026-05-07 02:17 32.66457 -95.85459 18510 ft 497 kts 99°
2026-05-07 02:17 32.66180 -95.81411 18769 ft 499 kts 99°
2026-05-07 02:18 32.65894 -95.77288 19037 ft 502 kts 99°
2026-05-07 02:18 32.65603 -95.73143 19301 ft 505 kts 99°
2026-05-07 02:18 32.65309 -95.68986 19559 ft 507 kts 99°
2026-05-07 02:18 32.65013 -95.64807 19838 ft 509 kts 99°
2026-05-07 02:19 32.64715 -95.60601 20111 ft 512 kts 99°
2026-05-07 02:19 32.64418 -95.56388 20376 ft 514 kts 99°
2026-05-07 02:19 32.64121 -95.52144 20632 ft 517 kts 99°
2026-05-07 02:19 32.63819 -95.47878 20888 ft 519 kts 99°
2026-05-07 02:20 32.63509 -95.43601 21140 ft 522 kts 99°
2026-05-07 02:20 32.63195 -95.39302 21390 ft 524 kts 99°
2026-05-07 02:20 32.62878 -95.34978 21642 ft 526 kts 99°
2026-05-07 02:20 32.62559 -95.30646 21904 ft 528 kts 99°
2026-05-07 02:21 32.62241 -95.26303 22200 ft 529 kts 99°
2026-05-07 02:21 32.61918 -95.21945 22451 ft 531 kts 99°
2026-05-07 02:21 32.61592 -95.17578 22699 ft 533 kts 99°
2026-05-07 02:21 32.61262 -95.13187 22959 ft 535 kts 99°
2026-05-07 02:22 32.60930 -95.08784 23199 ft 537 kts 99°
2026-05-07 02:22 32.60595 -95.04361 23443 ft 539 kts 99°
2026-05-07 02:22 32.60258 -94.99916 23666 ft 541 kts 99°
2026-05-07 02:22 32.59919 -94.95464 23845 ft 543 kts 99°
2026-05-07 02:23 32.59583 -94.91051 24028 ft 544 kts 98°
2026-05-07 02:23 32.59240 -94.86584 24207 ft 545 kts 99°
2026-05-07 02:23 32.58894 -94.82096 24370 ft 547 kts 99°
2026-05-07 02:23 32.58372 -94.77644 24515 ft 544 kts 106°
2026-05-07 02:24 32.57387 -94.73337 24640 ft 539 kts 114°
2026-05-07 02:24 32.56188 -94.69116 24787 ft 540 kts 114°
2026-05-07 02:24 32.54991 -94.64886 24933 ft 541 kts 114°
2026-05-07 02:24 32.53798 -94.60655 25146 ft 541 kts 114°
2026-05-07 02:25 32.52607 -94.56426 25324 ft 540 kts 114°
2026-05-07 02:25 32.51417 -94.52204 25537 ft 540 kts 114°
2026-05-07 02:25 32.50225 -94.47986 25743 ft 540 kts 114°
2026-05-07 02:25 32.49030 -94.43767 25947 ft 540 kts 115°
2026-05-07 02:26 32.47832 -94.39554 26153 ft 540 kts 115°
2026-05-07 02:26 32.46630 -94.35337 26355 ft 540 kts 115°
2026-05-07 02:26 32.45428 -94.31127 26557 ft 540 kts 115°
2026-05-07 02:26 32.44225 -94.26910 26760 ft 540 kts 115°
2026-05-07 02:27 32.43039 -94.22762 26957 ft 539 kts 115°
2026-05-07 02:27 32.41781 -94.18526 27149 ft 535 kts 120°
2026-05-07 02:27 32.40028 -94.14723 27307 ft 521 kts 133°
2026-05-07 02:27 32.38009 -94.11234 27488 ft 520 kts 133°
2026-05-07 02:28 32.35930 -94.07667 27674 ft 520 kts 133°
2026-05-07 02:28 32.33872 -94.04147 27887 ft 520 kts 133°
2026-05-07 02:28 32.31811 -94.00634 28090 ft 520 kts 133°
2026-05-07 02:28 32.29746 -93.97123 28291 ft 519 kts 133°
2026-05-07 02:29 32.27687 -93.93619 28465 ft 519 kts 133°
2026-05-07 02:29 32.25629 -93.90109 28686 ft 519 kts 133°
2026-05-07 02:29 32.23575 -93.86611 28893 ft 518 kts 133°
2026-05-07 02:29 32.21520 -93.83110 29085 ft 518 kts 133°
2026-05-07 02:30 32.19466 -93.79614 29256 ft 519 kts 133°
2026-05-07 02:30 32.17405 -93.76113 29422 ft 519 kts 133°
2026-05-07 02:30 32.15370 -93.72660 29604 ft 520 kts 133°
2026-05-07 02:30 32.13307 -93.69163 29787 ft 520 kts 133°
2026-05-07 02:31 32.11213 -93.65618 29969 ft 520 kts 133°
2026-05-07 02:31 32.09174 -93.62161 30134 ft 520 kts 133°
2026-05-07 02:31 32.07110 -93.58662 30294 ft 520 kts 133°
2026-05-07 02:31 32.05044 -93.55162 30456 ft 520 kts 134°
2026-05-07 02:32 32.02970 -93.51659 30622 ft 520 kts 134°
2026-05-07 02:32 32.00898 -93.48171 30740 ft 519 kts 134°
2026-05-07 02:32 31.98829 -93.44695 30919 ft 518 kts 134°
2026-05-07 02:32 31.96763 -93.41219 31086 ft 518 kts 134°
2026-05-07 02:33 31.94699 -93.37746 31253 ft 517 kts 134°
2026-05-07 02:33 31.92634 -93.34277 31414 ft 517 kts 134°
2026-05-07 02:33 31.90572 -93.30817 31575 ft 516 kts 134°
2026-05-07 02:33 31.88507 -93.27357 31740 ft 516 kts 134°
2026-05-07 02:34 31.86446 -93.23905 31908 ft 516 kts 134°
2026-05-07 02:34 31.84384 -93.20449 32055 ft 516 kts 134°
2026-05-07 02:34 31.82322 -93.17001 32229 ft 515 kts 134°
2026-05-07 02:34 31.80260 -93.13557 32385 ft 515 kts 134°
2026-05-07 02:35 31.78198 -93.10119 32546 ft 515 kts 134°
2026-05-07 02:35 31.76137 -93.06680 32657 ft 514 kts 134°
2026-05-07 02:35 31.74082 -93.03246 32785 ft 514 kts 133°
2026-05-07 02:35 31.72027 -92.99811 32954 ft 513 kts 134°
2026-05-07 02:36 31.67893 -92.92939 32997 ft 516 kts 134°
2026-05-07 02:36 31.63735 -92.86059 32940 ft 517 kts 134°
2026-05-07 02:37 31.59578 -92.79176 32934 ft 517 kts 134°
2026-05-07 02:37 31.55422 -92.72288 32942 ft 517 kts 134°
2026-05-07 02:38 31.51258 -92.65412 32929 ft 517 kts 134°
2026-05-07 02:38 31.47087 -92.58543 32928 ft 518 kts 133°
2026-05-07 02:39 31.42914 -92.51672 32953 ft 518 kts 133°
2026-05-07 02:39 31.38732 -92.44799 32976 ft 518 kts 133°
2026-05-07 02:40 31.34540 -92.37931 32972 ft 518 kts 133°
2026-05-07 02:40 31.30345 -92.31069 32972 ft 518 kts 133°
2026-05-07 02:41 31.26151 -92.24211 32948 ft 518 kts 133°
2026-05-07 02:41 31.21946 -92.17358 32935 ft 518 kts 133°
2026-05-07 02:42 31.17748 -92.10520 32975 ft 518 kts 133°
2026-05-07 02:42 31.13545 -92.03684 32982 ft 517 kts 133°
2026-05-07 02:43 31.09372 -91.96914 32985 ft 517 kts 133°
2026-05-07 02:43 31.05166 -91.90104 32946 ft 517 kts 132°
2026-05-07 02:44 31.00956 -91.83301 32924 ft 518 kts 132°
2026-05-07 02:44 30.96734 -91.76492 32931 ft 518 kts 132°
2026-05-07 02:45 30.92484 -91.69643 32923 ft 518 kts 132°
2026-05-07 02:45 30.88253 -91.62846 32941 ft 518 kts 132°
2026-05-07 02:46 30.84026 -91.56042 32951 ft 519 kts 132°
2026-05-07 02:46 30.79822 -91.49296 32945 ft 518 kts 131°
2026-05-07 02:47 30.75560 -91.42480 32956 ft 517 kts 131°
2026-05-07 02:47 30.71355 -91.35757 32958 ft 517 kts 131°
2026-05-07 02:48 30.67118 -91.29011 32956 ft 517 kts 131°
2026-05-07 02:48 30.62880 -91.22275 32957 ft 516 kts 131°
2026-05-07 02:49 30.58645 -91.15540 32958 ft 516 kts 131°
2026-05-07 02:49 30.54412 -91.08810 32958 ft 515 kts 131°
2026-05-07 02:50 30.50180 -91.02107 32960 ft 515 kts 131°
2026-05-07 02:50 30.45948 -90.95411 32959 ft 514 kts 131°
2026-05-07 02:51 30.41718 -90.88728 32962 ft 514 kts 131°
2026-05-07 02:51 30.37481 -90.82053 32934 ft 515 kts 131°
2026-05-07 02:52 30.33221 -90.75364 32921 ft 517 kts 131°
2026-05-07 02:52 30.28935 -90.68636 32924 ft 520 kts 131°
2026-05-07 02:53 30.24639 -90.61903 32930 ft 521 kts 131°
2026-05-07 02:53 30.20326 -90.55148 32964 ft 522 kts 131°
2026-05-07 02:54 30.16007 -90.48393 32973 ft 523 kts 131°
2026-05-07 02:54 30.12380 -90.42740 32980 ft 523 kts 131°
2026-05-07 02:55 30.08047 -90.35987 32977 ft 522 kts 131°
2026-05-07 02:55 30.03720 -90.29250 32981 ft 523 kts 131°
2026-05-07 02:56 29.99390 -90.22516 32979 ft 522 kts 131°
2026-05-07 02:56 29.95046 -90.15793 32986 ft 522 kts 131°
2026-05-07 02:57 29.90700 -90.09082 32994 ft 522 kts 131°
2026-05-07 02:57 29.86358 -90.02373 33002 ft 522 kts 131°
2026-05-07 02:58 29.81947 -89.95811 32974 ft 520 kts 134°
2026-05-07 02:58 29.77265 -89.89502 32998 ft 517 kts 136°
2026-05-07 02:59 29.72534 -89.83275 33003 ft 517 kts 136°
2026-05-07 02:59 29.67836 -89.76946 33010 ft 517 kts 135°
2026-05-07 03:00 29.63215 -89.70618 33010 ft 516 kts 135°
2026-05-07 03:00 29.58621 -89.64345 33017 ft 516 kts 135°
2026-05-07 03:01 29.53969 -89.58054 33016 ft 516 kts 135°
2026-05-07 03:01 29.49323 -89.51793 33020 ft 514 kts 135°
2026-05-07 03:02 29.44686 -89.45536 33027 ft 513 kts 135°
2026-05-07 03:02 29.40061 -89.39296 33028 ft 512 kts 135°
2026-05-07 03:03 29.35438 -89.33077 33032 ft 512 kts 135°
2026-05-07 03:03 29.30819 -89.26864 33027 ft 512 kts 135°
2026-05-07 03:04 29.26199 -89.20663 33254 ft 510 kts 135°
2026-05-07 03:04 29.23893 -89.17574 33382 ft 510 kts 135°
2026-05-07 03:04 29.21591 -89.14496 33552 ft 508 kts 135°
2026-05-07 03:05 29.19322 -89.11462 33730 ft 507 kts 135°
2026-05-07 03:05 29.17029 -89.08397 33877 ft 507 kts 135°
2026-05-07 03:05 29.14738 -89.05334 34022 ft 506 kts 135°
2026-05-07 03:05 29.12448 -89.02276 34136 ft 506 kts 135°
2026-05-07 03:06 29.10156 -88.99219 34248 ft 506 kts 135°
2026-05-07 03:06 29.07863 -88.96167 34371 ft 505 kts 135°
2026-05-07 03:06 29.05573 -88.93118 34475 ft 505 kts 135°
2026-05-07 03:06 29.03284 -88.90070 34595 ft 505 kts 135°
2026-05-07 03:07 29.00996 -88.87026 34710 ft 505 kts 135°
2026-05-07 03:07 28.98709 -88.83988 34817 ft 504 kts 135°
2026-05-07 03:07 28.96424 -88.80955 34969 ft 504 kts 135°
2026-05-07 03:07 28.94136 -88.77916 35002 ft 505 kts 135°
2026-05-07 03:08 28.89556 -88.71838 35024 ft 505 kts 135°
2026-05-07 03:08 28.84977 -88.65762 35021 ft 505 kts 135°
2026-05-07 03:09 28.80431 -88.59651 35023 ft 505 kts 135°
2026-05-07 03:09 28.75892 -88.53538 35025 ft 505 kts 135°
2026-05-07 03:10 28.71332 -88.47430 35032 ft 506 kts 135°
2026-05-07 03:10 28.66759 -88.41331 35036 ft 507 kts 135°
2026-05-07 03:11 28.62177 -88.35225 35032 ft 506 kts 135°
2026-05-07 03:11 28.57607 -88.29128 35052 ft 506 kts 135°
2026-05-07 03:12 28.53028 -88.23039 35058 ft 506 kts 135°
2026-05-07 03:12 28.48446 -88.16964 35051 ft 506 kts 135°
2026-05-07 03:13 28.43864 -88.10897 35063 ft 505 kts 135°
2026-05-07 03:13 28.39373 -88.04743 35055 ft 509 kts 128°
2026-05-07 03:14 28.36150 -87.97551 35059 ft 515 kts 114°
2026-05-07 03:15 28.32151 -87.86246 35057 ft 514 kts 114°
2026-05-07 03:15 28.29470 -87.78726 35063 ft 514 kts 114°
2026-05-07 03:16 28.26793 -87.71206 35067 ft 514 kts 114°
2026-05-07 03:16 28.24113 -87.63686 35069 ft 514 kts 114°
2026-05-07 03:17 28.21426 -87.56167 35068 ft 514 kts 114°
2026-05-07 03:17 28.18722 -87.48655 35071 ft 514 kts 114°
2026-05-07 03:18 28.16018 -87.41155 35074 ft 514 kts 114°
2026-05-07 03:18 28.13324 -87.33640 35078 ft 514 kts 114°
2026-05-07 03:19 28.10649 -87.26188 35074 ft 514 kts 114°
2026-05-07 03:19 28.07942 -87.18690 35076 ft 514 kts 114°
2026-05-07 03:20 28.05231 -87.11195 35080 ft 514 kts 114°
2026-05-07 03:20 28.02517 -87.03704 35072 ft 514 kts 115°
2026-05-07 03:21 27.99799 -86.96227 35082 ft 514 kts 115°
2026-05-07 03:21 27.97072 -86.88757 35089 ft 514 kts 115°
2026-05-07 03:22 27.94341 -86.81285 35088 ft 514 kts 115°
2026-05-07 03:22 27.91610 -86.73813 35088 ft 514 kts 115°
2026-05-07 03:23 27.88880 -86.66337 35092 ft 514 kts 115°
2026-05-07 03:23 27.86141 -86.58874 35091 ft 514 kts 115°
2026-05-07 03:24 27.83391 -86.51419 35089 ft 514 kts 115°
2026-05-07 03:24 27.80646 -86.43956 35095 ft 514 kts 114°
2026-05-07 03:25 27.77899 -86.36492 35094 ft 515 kts 115°
2026-05-07 03:25 27.75132 -86.29035 35095 ft 515 kts 115°
2026-05-07 03:26 27.72363 -86.21579 35094 ft 515 kts 115°
2026-05-07 03:26 27.69594 -86.14119 35094 ft 515 kts 115°
2026-05-07 03:27 27.66818 -86.06665 35095 ft 516 kts 115°
2026-05-07 03:27 27.64056 -85.99253 35096 ft 516 kts 115°
2026-05-07 03:28 27.61270 -85.91791 35097 ft 516 kts 115°
2026-05-07 03:28 27.58482 -85.84336 35104 ft 516 kts 115°
2026-05-07 03:29 27.55687 -85.76880 35103 ft 516 kts 115°
2026-05-07 03:29 27.52887 -85.69426 35105 ft 516 kts 115°
2026-05-07 03:30 27.50082 -85.61981 35105 ft 516 kts 115°
2026-05-07 03:30 27.47268 -85.54536 35106 ft 516 kts 115°
2026-05-07 03:31 27.44460 -85.47101 35105 ft 516 kts 115°
2026-05-07 03:31 27.41728 -85.39626 35105 ft 517 kts 108°
2026-05-07 03:32 27.40443 -85.31680 35106 ft 517 kts 94°
2026-05-07 03:32 27.39978 -85.24965 35105 ft 518 kts 94°
2026-05-07 03:33 27.39391 -85.16888 35102 ft 518 kts 94°
2026-05-07 03:33 27.38795 -85.08807 35095 ft 518 kts 94°
2026-05-07 03:34 27.38196 -85.00725 35111 ft 518 kts 94°
2026-05-07 03:34 27.37606 -84.92646 35115 ft 517 kts 94°
2026-05-07 03:35 27.37006 -84.84577 35113 ft 517 kts 94°
2026-05-07 03:35 27.36394 -84.76563 35114 ft 517 kts 94°
2026-05-07 03:36 27.35777 -84.68507 35116 ft 517 kts 95°
2026-05-07 03:36 27.35084 -84.60459 35115 ft 517 kts 95°
2026-05-07 03:37 27.34329 -84.52429 35116 ft 516 kts 95°
2026-05-07 03:37 27.33568 -84.44346 35116 ft 516 kts 95°
2026-05-07 03:38 27.32832 -84.36364 35116 ft 516 kts 95°
2026-05-07 03:38 27.32094 -84.28331 35115 ft 516 kts 95°
2026-05-07 03:39 27.31346 -84.20299 35118 ft 516 kts 95°
2026-05-07 03:39 27.30598 -84.12276 35117 ft 516 kts 95°
2026-05-07 03:40 27.29839 -84.04253 35119 ft 516 kts 95°
2026-05-07 03:40 27.29068 -83.96238 35119 ft 516 kts 95°
2026-05-07 03:41 27.28294 -83.88219 35118 ft 516 kts 95°
2026-05-07 03:41 27.27532 -83.80199 35117 ft 516 kts 95°
2026-05-07 03:42 27.26777 -83.72184 35115 ft 516 kts 95°
2026-05-07 03:42 27.25999 -83.64166 35115 ft 516 kts 95°
2026-05-07 03:42 27.25603 -83.60134 34841 ft 522 kts 95°
2026-05-07 03:43 27.25201 -83.56099 34409 ft 516 kts 95°
2026-05-07 03:43 27.24797 -83.52095 33936 ft 514 kts 95°
2026-05-07 03:43 27.24400 -83.48155 33419 ft 514 kts 95°
2026-05-07 03:43 27.24002 -83.44154 32632 ft 515 kts 95°
2026-05-07 03:44 27.23606 -83.40151 31802 ft 517 kts 95°
2026-05-07 03:44 27.23187 -83.36127 30907 ft 521 kts 98°
2026-05-07 03:44 27.22485 -83.32110 29863 ft 527 kts 101°
2026-05-07 03:44 27.21729 -83.28070 28936 ft 527 kts 102°
2026-05-07 03:45 27.20975 -83.24043 28217 ft 523 kts 102°
2026-05-07 03:45 27.20232 -83.20063 27526 ft 519 kts 102°
2026-05-07 03:45 27.19495 -83.16120 26915 ft 513 kts 102°
2026-05-07 03:45 27.18763 -83.12216 26297 ft 508 kts 102°
2026-05-07 03:46 27.18032 -83.08351 25686 ft 504 kts 102°
2026-05-07 03:46 27.17306 -83.04518 25083 ft 499 kts 102°
2026-05-07 03:46 27.16585 -83.00722 24478 ft 495 kts 102°
2026-05-07 03:46 27.15869 -82.96956 23868 ft 491 kts 102°
2026-05-07 03:47 27.15158 -82.93218 23208 ft 486 kts 102°
2026-05-07 03:47 27.14465 -82.89576 22642 ft 479 kts 102°
2026-05-07 03:47 27.13682 -82.85980 22081 ft 471 kts 109°
2026-05-07 03:47 27.12427 -82.82627 21518 ft 462 kts 119°
2026-05-07 03:48 27.10719 -82.79563 20991 ft 453 kts 126°
2026-05-07 03:48 27.08963 -82.76659 20489 ft 446 kts 125°
2026-05-07 03:48 27.07257 -82.73834 20002 ft 439 kts 125°
2026-05-07 03:48 27.05554 -82.71015 19517 ft 433 kts 125°
2026-05-07 03:49 27.03878 -82.68240 19054 ft 427 kts 125°
2026-05-07 03:49 27.02217 -82.65495 18568 ft 422 kts 125°
2026-05-07 03:49 27.00574 -82.62782 18021 ft 418 kts 125°
2026-05-07 03:49 26.98949 -82.60092 17454 ft 413 kts 124°
2026-05-07 03:50 26.97353 -82.57446 16970 ft 407 kts 124°
2026-05-07 03:50 26.95780 -82.54838 16478 ft 401 kts 124°
2026-05-07 03:50 26.94225 -82.52265 15986 ft 395 kts 124°
2026-05-07 03:50 26.92690 -82.49733 15481 ft 390 kts 124°
2026-05-07 03:51 26.91170 -82.47228 14990 ft 386 kts 124°
2026-05-07 03:51 26.89669 -82.44751 14480 ft 382 kts 123°
2026-05-07 03:51 26.88187 -82.42305 13985 ft 378 kts 123°
2026-05-07 03:51 26.86707 -82.39890 13435 ft 375 kts 126°
2026-05-07 03:52 26.84886 -82.37817 12862 ft 373 kts 139°
2026-05-07 03:52 26.82911 -82.35945 12298 ft 370 kts 139°
2026-05-07 03:52 26.80955 -82.34097 11779 ft 366 kts 139°
2026-05-07 03:52 26.79019 -82.32273 11279 ft 362 kts 139°
2026-05-07 03:53 26.77107 -82.30470 10818 ft 358 kts 139°
2026-05-07 03:53 26.75216 -82.28692 10358 ft 352 kts 139°
2026-05-07 03:53 26.73353 -82.26942 9898 ft 347 kts 139°
2026-05-07 03:53 26.71527 -82.25227 9613 ft 335 kts 139°
2026-05-07 03:54 26.69783 -82.23585 9485 ft 320 kts 139°
2026-05-07 03:54 26.68117 -82.22016 9357 ft 306 kts 139°
2026-05-07 03:54 26.66522 -82.20515 9223 ft 294 kts 139°
2026-05-07 03:54 26.64977 -82.19064 8950 ft 287 kts 139°
2026-05-07 03:55 26.63457 -82.17636 8606 ft 284 kts 139°
2026-05-07 03:55 26.61950 -82.16218 8227 ft 283 kts 139°
2026-05-07 03:55 26.60450 -82.14805 7852 ft 281 kts 139°
2026-05-07 03:55 26.58956 -82.13401 7473 ft 280 kts 139°
2026-05-07 03:56 26.57468 -82.12007 7115 ft 279 kts 139°
2026-05-07 03:56 26.55984 -82.10618 6755 ft 278 kts 139°
2026-05-07 03:56 26.54507 -82.09235 6400 ft 276 kts 139°
2026-05-07 03:56 26.53040 -82.07859 6033 ft 274 kts 139°
2026-05-07 03:57 26.51590 -82.06500 5592 ft 270 kts 139°
2026-05-07 03:57 26.50159 -82.05158 5111 ft 267 kts 139°
2026-05-07 03:57 26.48747 -82.03834 4617 ft 263 kts 139°
2026-05-07 03:57 26.47369 -82.02544 4101 ft 261 kts 139°
2026-05-07 03:58 26.45982 -82.01249 3660 ft 260 kts 139°
2026-05-07 03:58 26.44599 -81.99958 3301 ft 258 kts 139°
2026-05-07 03:58 26.43230 -81.98679 3024 ft 253 kts 139°
2026-05-07 03:58 26.42014 -81.97357 2995 ft 235 kts 122°
2026-05-07 03:59 26.41471 -81.95724 3001 ft 221 kts 96°
2026-05-07 03:59 26.41660 -81.94050 2999 ft 219 kts 70°
2026-05-07 03:59 26.42432 -81.92645 2990 ft 204 kts 56°
2026-05-07 03:59 26.43245 -81.91410 2961 ft 193 kts 56°
2026-05-07 04:00 26.44028 -81.90214 2769 ft 189 kts 56°
2026-05-07 04:00 26.44798 -81.89036 2546 ft 187 kts 56°
2026-05-07 04:00 26.45566 -81.87861 2310 ft 188 kts 56°
2026-05-07 04:00 26.46336 -81.86681 2078 ft 188 kts 56°
2026-05-07 04:01 26.47113 -81.85492 1832 ft 184 kts 56°
2026-05-07 04:01 26.47842 -81.84375 1626 ft 175 kts 56°
2026-05-07 04:01 26.48539 -81.83307 1380 ft 166 kts 56°
2026-05-07 04:01 26.49198 -81.82297 1168 ft 158 kts 56°
2026-05-07 04:02 26.49838 -81.81319 980 ft 155 kts 55°
2026-05-07 04:02 26.50469 -81.80351 795 ft 153 kts 55°
2026-05-07 04:02 26.51096 -81.79387 617 ft 153 kts 55°
2026-05-07 04:02 26.51725 -81.78420 396 ft 154 kts 55°
2026-05-07 04:03 26.52354 -81.77457 208 ft 154 kts 56°
2026-05-07 04:03 26.52978 -81.76497 48 ft 146 kts 55°
2026-05-07 04:03 26.53500 -81.75692 42 ft 105 kts 54°
2026-05-07 04:03 26.53790 -81.75248 42 ft 38 kts 54°
2026-05-07 04:04 26.53899 -81.75052 44 ft 20 kts 76°
2026-05-07 04:04 26.53866 -81.74962 45 ft 11 kts 165°
2026-05-07 04:04 26.53814 -81.75004 45 ft 9 kts 233°
2026-05-07 04:04 26.53772 -81.75068 43 ft 11 kts 234°
2026-05-07 04:05 26.53724 -81.75143 44 ft 12 kts 234°
2026-05-07 04:05 26.53671 -81.75223 43 ft 13 kts 233°
2026-05-07 04:05 26.53615 -81.75309 43 ft 14 kts 234°
2026-05-07 04:05 26.53555 -81.75402 44 ft 15 kts 234°
2026-05-07 04:06 26.53491 -81.75500 44 ft 16 kts 233°
2026-05-07 04:06 26.53425 -81.75601 43 ft 16 kts 234°
2026-05-07 04:06 26.53356 -81.75706 42 ft 17 kts 234°
2026-05-07 04:06 26.53302 -81.75790 45 ft 10 kts 234°
2026-05-07 04:07 26.53259 -81.75852 45 ft 10 kts 224°
2026-05-07 04:07 26.53200 -81.75847 45 ft 10 kts 143°
2026-05-07 04:07 26.53145 -81.75802 44 ft 9 kts 144°
2026-05-07 04:07 26.53115 -81.75778 44 ft 4 kts 144°
2026-05-07 04:08 26.53094 -81.75761 44 ft 3 kts 144°
2026-05-07 04:08 26.53079 -81.75749 42 ft 3 kts 144°
2026-05-07 04:08 26.53062 -81.75735 44 ft 4 kts 144°
2026-05-07 04:08 26.53038 -81.75716 44 ft 4 kts 144°
2026-05-07 04:09 26.53018 -81.75707 44 ft 3 kts 178°
2026-05-07 04:09 26.53001 -81.75721 44 ft 4 kts 224°
2026-05-07 04:09 26.52987 -81.75741 44 ft 3 kts 233°
2026-05-07 04:09 26.52980 -81.75752 43 ft 1 kts 233°
2026-05-07 04:10 26.52977 -81.75757 44 ft 1 kts 233°
2026-05-07 04:10 26.52976 -81.75758 44 ft 0 kts 233°
2026-05-07 04:10 26.52975 -81.75759 44 ft 0 kts 233°